sat.trackr.live / text

‹ back to catalog

STARLINK-37380

NORAD 69182 · 2026-114A

PAYLOAD ACTIVE UNKNOWN

§ Identity

Operator
Country
US
Launch date
2026-05-25
Launch site
AFETR
Launch vehicle
Mass (kg)
RCS (m²)

Purposes: comms

External: N2YO · Heavens-Above · Gunter

§ Orbital elements

Epoch: 2026-09-19T23:50:19.234752Z

Period
93.85 min
Inclination
53.1578°
Eccentricity
0.0001708
Mean motion
15.34406940 rev/d
Perigee alt
461.5 km
Apogee alt
463.9 km
Semi-major
6,840.8 km
B*
5.9105e-4
RAAN
116.4338°
Arg perigee
98.0177°
Mean anomaly
262.1019°
Rev number
1,936

§ Raw data

STARLINK-373801 69182U 26114A   26262.99327818  .00019650  00000+0  59105-3 0  99982 69182  53.1578 116.4338 0001708  98.0177 262.1019 15.34406940 19367

JSON: /api/v1/satellites/69182 · /tle

For live sub-satellite position, see the globe view (requires WebGL).

§ Visibility from observer

Set your observer location to see the next 7 days of passes ≥ 10°. The values pass through the URL so the page stays shareable.

No JS? Fill the form by hand. The geolocation button needs JavaScript.